Погода в Новороссийском

Россия / Новосибирская область     54°20′42″N   78°17′05″E
темп.,
°C
ветер,
м/с
пор.,
м/с
влажн.,
%
обл.,
%
осадки,
мм/ч
давл.,
гПа
погр.,
м
9 мая, вс
вс901:00+15з11372 0.0 101711
04:00+13ссв22446 0.0 101717
07:00+11всв35645 0.0 101877
10:00+17всв55442 0.0 1017501
13:00+19св653510 0.0 10171075
16:00+20св7633100 0.0 10161378
19:00+17св7836100 0.0 10171179
22:00+13всв71239100 0.0 1018650
10 мая, пн
пн1001:00+10всв71444100 0.0 1019654
04:00+9в81546100 0.0 1019657
07:00+7в71450100 0.0 1020769
10:00+10в91245100 0.0 1020973
13:00+15всв91135100 0.0 10201574
16:00+17всв9113170 0.0 10191830
19:00+16св81033100 0.0 10181989
22:00+13св61241100 0.0 1019501
11 мая, вт
вт1101:00+10ссв613521 0.0 1019396
04:00+8ссв512655 0.0 1020323
07:00+7ссв5117096 0.0 1021338
10:00+12ссв68535 0.0 1021782
13:00+16св673875 0.0 10212247
16:00+18ссв673094 0.0 10202684
19:00+17св773490 0.0 10212249
22:00+14ссв374267 0.0 1023204
12 мая, ср
ср1201:00+10с34514 0.0 102352
04:00+8ссв34600 0.0 102468
07:00+8с246441 0.0 102478
10:00+13ссз354473 0.0 1024802
13:00+16ссз4534100 0.0 10231356
16:00+17ссз562997 0.0 10211392
19:00+18с353181 0.0 10201166
22:00+15юв2239100 0.0 101926
13 мая, чт
чт1301:00+14сз2452100 0.0 1019129
04:00+11св238266 0.4 1018112
07:00+10с368988 0.9 1019270
10:00+11с6780100 0.1 1019604
13:00+13с676681 0.1 10191014
16:00+16ссз664779 0.2 10191696
19:00+16ссз553978 0.2 10191549
22:00+12зсз474769 0.0 1020110